#timestamp,LO_Frequency,Hit,StdDev 
1596576175.7,286047007.6,P
1596576195.5,286047005.9,P
1596576215.3,286047005.9,P
1596576235.2,286047002.9,Y
1596576255.0,286046998.8,P
1596576255.9,286046998.8,N
1596576275.7,286046998.7,N
1596576295.6,286046998.8,N
1596576315.4,286046998.7,N
1596576335.3,286046999.2,N
1596576355.1,286046999.2,N
1596576356.0,286046999.2,N
1596576375.8,286046997.3,N
1596576395.7,286046999.5,N
1596576415.5,286046999.3,N
1596576435.3,286046998.9,N
1596576455.2,286046998.9,N
1596576475.0,286046999.5,N
1596576475.9,286046999.5,N
1596576495.8,286046998.4,N
1596576515.6,286046999.6,N
1596576535.4,286046999.4,N
1596576555.3,286047001.2,N
1596576575.1,286047000.3,N
1596576595.8,286047001.0,N
1596576615.7,286047000.9,N
1596576635.5,286046998.5,N
1596576655.4,286047000.6,N
1596576675.2,286047000.4,N
1596576695.0,286047001.2,N
1596576695.9,286047001.2,N
1596576715.8,286046998.4,N
1596576735.6,286046999.3,N
1596576755.4,286046998.1,N
1596576775.3,286046998.1,N
1596576795.1,286046998.3,N
1596576815.9,286046999.0,N
1596576835.7,286046999.2,N
1596576855.5,286046999.4,N
1596576875.4,286046999.0,N
1596576895.2,286046999.5,N
1596576915.1,286046996.9,Y
1596576916.0,286046996.9,P
1596576935.8,286046998.4,N
1596576955.6,286047001.0,N
1596576975.5,286046999.7,N
1596576995.3,286047002.4,N
1596577015.1,286047000.8,N
1596577035.9,286046998.9,N
1596577055.7,286046998.7,N
1596577075.6,286046998.5,N
1596577095.4,286046998.3,N
1596577115.2,286046999.4,N
1596577135.1,286046998.6,N
1596577136.0,286046998.6,N
1596577155.8,286047000.8,N
1596577175.6,286046999.0,N
1596577195.5,286046998.6,N
1596577215.3,286046998.1,N
1596577235.2,286047000.0,N
1596577255.9,286046998.2,N
1596577275.7,286046998.6,N
1596577295.6,286047001.2,N
1596577315.4,286046998.5,N
1596577335.2,286046998.3,N
1596577355.1,286046998.8,N
1596577356.0,286046998.8,N
1596577375.8,286046998.8,N
1596577395.7,286047000.9,N
1596577415.5,286047001.2,N
1596577435.3,286047000.6,N
1596577455.2,286047000.2,N
1596577475.0,286047001.1,N
1596577475.9,286047001.1,N
1596577495.7,286046998.3,N
1596577515.6,286046998.2,N
1596577535.4,286047000.3,N
1596577555.3,286046998.5,N
1596577575.1,286047001.1,N
1596577576.0,286047001.1,N
1596577595.8,286046998.6,N
1596577615.7,286046998.5,N
1596577635.5,286047001.2,N
1596577655.3,286047001.2,N
1596577675.2,286046998.8,N
1596577695.0,286046998.9,N
1596577695.9,286046998.9,N
1596577715.8,286046996.5,N
1596577735.6,286046997.5,N
1596577755.4,286046997.1,N
1596577775.3,286046997.0,N
1596577795.1,286046997.0,N
1596577815.9,286046999.2,N
1596577835.7,286046997.0,N
1596577855.5,286046998.8,N
1596577875.4,286046996.5,N
1596577895.2,286046997.1,N
1596577915.0,286046996.6,N
1596577915.9,286046996.6,N
1596577935.8,286046997.8,N
1596577955.6,286046997.8,N
1596577975.5,286046998.0,N
1596577995.3,286046997.9,N
1596578015.1,286046997.7,N
1596578035.9,286046999.2,N
1596578055.7,286046997.4,N
1596578075.5,286046996.8,N
1596578095.4,286046997.9,N
1596578115.2,286046996.8,N
1596578135.1,286046997.4,N
1596578136.0,286046997.4,N
1596578155.8,286046997.8,N
1596578175.6,286046996.9,N
1596578195.5,286046999.0,N
1596578215.3,286046999.0,N
1596578235.2,286046997.4,Y
1596578255.9,286047001.0,P
1596578275.7,286047000.5,N
1596578295.6,286047000.0,N
1596578315.4,286047000.1,N
1596578335.2,286047002.8,N
1596578355.1,286047001.1,N
1596578356.0,286047001.1,N
1596578375.8,286046998.1,N
1596578395.7,286046998.7,N
